Date String (YYYY-MM-DD hh:mm:ss) UTC,Instrument flags,Ambient pressure (hPa),Sample flow (lpm),Bypass flow (lpm),Sample temperature (°C),Ambient temperature (°C),ASC tube jacket temperature (°C),LED temperature (°C),Box temperature (°C),Sample RH (%),Span deviation,Mass concentration (μg/m³),Mass concentration (μg/m³),Mass concentration (μg/m³)
DateTimeUTC,F1_M11,P_M11,Q1_M11,Q2_M11,T1_M11,T2_M11,T3_M11,T4_M11,T5_M11,U1_M11,ZSPAN_M11,X0_M11,X2_M11,X1_M11
2023-01-24 05:00:00,,0822.8,4.99,0.00,21.2,19.5,00.0,30.0,22.8,15.4,-000.4,0019.31,0017.73,0017.46
2023-01-24 05:01:00,,0822.8,4.99,0.00,21.2,19.5,00.0,30.0,22.8,15.4,-000.6,0019.36,0017.75,0017.47
2023-01-24 05:02:00,,0822.8,5.01,0.00,21.2,20.2,00.0,30.0,22.9,15.4,-000.8,0019.30,0017.72,0017.43
2023-01-24 05:03:00,,0822.9,4.99,0.00,21.4,21.5,00.0,30.0,23.3,15.3,-000.8,0019.68,0017.66,0017.37
2023-01-24 05:04:00,,0822.9,5.01,0.00,21.5,22.4,00.0,30.1,23.5,15.2,-000.6,0019.51,0017.60,0017.31
2023-01-24 05:05:00,,0822.8,4.98,0.00,21.6,22.3,00.0,30.1,23.6,15.1,-000.5,0019.45,0017.57,0017.28
2023-01-24 05:06:00,,0822.8,5.00,0.00,21.7,21.8,00.0,30.2,23.6,15.1,-000.2,0019.36,0017.55,0017.27
2023-01-24 05:07:00,,0822.8,5.00,0.00,21.7,21.4,00.0,30.2,23.5,15.0,-000.5,0019.39,0017.56,0017.28
2023-01-24 05:08:00,,0822.8,5.01,0.00,21.7,21.1,00.0,30.3,23.5,15.0,-000.6,0019.45,0017.59,0017.29
2023-01-24 05:09:00,,0822.8,5.02,0.00,21.7,20.9,00.0,30.3,23.5,15.0,-001.0,0019.50,0017.59,0017.28
2023-01-24 05:10:00,,0822.8,5.03,0.00,21.7,20.7,00.0,30.3,23.5,15.0,-001.1,0019.54,0017.54,0017.24
2023-01-24 05:11:00,,0822.8,5.00,0.00,21.7,20.6,00.0,30.3,23.4,14.9,-000.8,0019.45,0017.49,0017.20
2023-01-24 05:12:00,,0822.8,5.01,0.00,21.7,20.5,00.0,30.3,23.4,14.9,-000.8,0019.37,0017.43,0017.16
2023-01-24 05:13:00,,0822.8,5.00,0.00,21.7,20.5,00.0,30.4,23.4,14.9,-000.8,0019.40,0017.41,0017.15
2023-01-24 05:14:00,,0822.8,4.99,0.00,21.7,20.5,00.0,30.4,23.4,14.9,-000.8,0018.87,0017.41,0017.15
2023-01-24 05:15:00,,0822.8,5.01,0.00,21.7,20.4,00.0,30.4,23.4,14.9,-000.8,0018.36,0017.37,0017.13
2023-01-24 05:16:00,,0822.8,5.01,0.00,21.7,20.4,00.0,30.4,23.4,14.9,-001.2,0018.42,0017.35,0017.11
2023-01-24 05:17:00,,0822.8,5.00,0.00,21.7,20.4,00.0,30.4,23.4,14.9,-001.4,0018.39,0017.33,0017.09
2023-01-24 05:18:00,,0822.8,5.01,0.00,21.7,20.4,00.0,30.4,23.4,14.9,-001.1,0018.29,0017.29,0017.07
2023-01-24 05:19:00,,0822.8,5.00,0.00,21.7,20.4,00.0,30.4,23.4,14.9,-000.9,0018.28,0017.26,0017.03
2023-01-24 05:20:00,,0822.8,4.99,0.00,21.7,20.3,00.0,30.4,23.4,14.9,-000.7,0018.29,0017.26,0017.03
2023-01-24 05:21:00,,0822.8,5.00,0.00,21.7,20.3,00.0,30.4,23.4,14.9,-000.6,0018.29,0017.28,0017.04
2023-01-24 05:22:00,,0822.8,5.00,0.00,21.7,20.3,00.0,30.4,23.4,14.9,-000.4,0018.35,0017.30,0017.06
2023-01-24 05:23:00,,0822.8,5.02,0.00,21.7,20.3,00.0,30.4,23.4,14.9,-000.2,0018.45,0017.32,0017.07
2023-01-24 05:24:00,,0822.8,5.00,0.00,21.7,20.3,00.0,30.4,23.4,14.9,-000.2,0018.44,0017.33,0017.10
2023-01-24 05:25:00,,0822.8,5.00,0.00,21.7,20.3,00.0,30.4,23.4,14.9,-000.3,0018.40,0017.32,0017.09
2023-01-24 05:26:00,,0822.8,5.02,0.00,21.7,20.8,00.0,30.4,23.5,14.9,-000.5,0018.52,0017.39,0017.13
2023-01-24 05:27:00,,0822.8,4.99,0.00,21.8,21.8,00.0,30.4,23.8,14.8,-000.2,0018.44,0017.40,0017.16
2023-01-24 05:28:00,,0822.8,4.99,0.00,22.0,22.7,00.0,30.5,24.0,14.7,0000.2,0018.45,0017.45,0017.21
2023-01-24 05:29:00,,0822.8,4.98,0.00,22.1,22.6,00.0,30.5,24.1,14.6,0000.2,0018.57,0017.52,0017.26
2023-01-24 05:30:00,,0822.8,5.01,0.00,22.1,22.1,00.0,30.6,24.1,14.6,-000.2,0019.02,0017.60,0017.33
2023-01-24 05:31:00,,0822.8,5.02,0.00,22.1,21.8,00.0,30.6,24.0,14.5,-000.3,0019.14,0017.68,0017.40
2023-01-24 05:32:00,,0822.8,5.01,0.00,22.1,21.5,00.0,30.7,24.0,14.5,-000.4,0019.22,0017.72,0017.45
2023-01-24 05:33:00,,0822.8,5.01,0.00,22.2,21.3,00.0,30.7,23.9,14.5,-000.5,0019.36,0017.79,0017.50
2023-01-24 05:34:00,,0822.8,5.02,0.00,22.2,21.1,00.0,30.7,23.9,14.5,-000.8,0019.39,0017.84,0017.55
2023-01-24 05:35:00,,0822.8,4.99,0.00,22.2,21.0,00.0,30.7,23.9,14.5,-000.9,0019.51,0017.91,0017.61
2023-01-24 05:36:00,,0822.7,4.99,0.00,22.2,21.0,00.0,30.7,23.9,14.5,-000.8,0019.65,0018.02,0017.70
2023-01-24 05:37:00,,0822.8,5.00,0.00,22.2,20.9,00.0,30.8,23.9,14.5,-000.8,0019.68,0018.07,0017.77
2023-01-24 05:38:00,,0822.7,4.98,0.00,22.1,20.8,00.0,30.8,23.9,14.5,-000.8,0019.81,0018.14,0017.82
2023-01-24 05:39:00,,0822.7,4.99,0.00,22.1,20.8,00.0,30.8,23.9,14.5,-000.8,0019.85,0018.18,0017.86
2023-01-24 05:40:00,,0822.7,4.99,0.00,22.1,20.8,00.0,30.8,23.9,14.5,-000.9,0019.78,0018.18,0017.89
2023-01-24 05:41:00,,0822.7,5.00,0.00,22.1,20.7,00.0,30.8,23.8,14.6,-000.8,0019.43,0018.21,0017.93
2023-01-24 05:42:00,,0822.7,5.00,0.00,22.1,20.7,00.0,30.8,23.8,14.6,-000.6,0019.46,0018.30,0018.02
2023-01-24 05:43:00,,0822.7,4.99,0.00,22.1,20.7,00.0,30.8,23.8,14.6,-000.7,0019.50,0018.39,0018.11
2023-01-24 05:44:00,,0822.7,5.00,0.00,22.1,20.7,00.0,30.8,23.8,14.6,-000.6,0019.47,0018.50,0018.22
2023-01-24 05:45:00,,0822.7,5.01,0.00,22.1,20.7,00.0,30.8,23.8,14.6,-000.5,0019.47,0018.57,0018.31
2023-01-24 05:46:00,,0822.7,5.00,0.00,22.1,20.7,00.0,30.8,23.8,14.6,-000.5,0019.46,0018.61,0018.35
2023-01-24 05:47:00,,0822.7,4.99,0.00,22.1,20.6,00.0,30.8,23.8,14.6,-000.6,0019.45,0018.63,0018.37
2023-01-24 05:48:00,,0822.7,5.02,0.00,22.1,20.6,00.0,30.8,23.8,14.6,-000.2,0019.40,0018.64,0018.40
2023-01-24 05:49:00,,0822.7,4.99,0.00,22.0,20.6,00.0,30.8,23.8,14.7,-000.4,0019.35,0018.66,0018.44
2023-01-24 05:50:00,,0822.7,4.99,0.00,22.0,20.5,00.0,30.8,23.7,14.6,-000.6,0019.54,0018.81,0018.56
2023-01-24 05:51:00,,0822.7,5.00,0.00,22.0,20.6,00.0,30.8,23.7,14.6,-000.7,0019.83,0019.00,0018.73
2023-01-24 05:52:00,,0822.7,5.00,0.00,22.1,21.3,00.0,30.8,23.9,14.6,-000.6,0020.00,0019.13,0018.86
2023-01-24 05:53:00,,0822.7,5.00,0.00,22.2,22.3,00.0,30.8,24.2,14.5,-000.9,0020.12,0019.21,0018.95
2023-01-24 05:54:00,,0822.8,5.00,0.00,22.3,22.9,00.0,30.8,24.3,14.4,-001.0,0020.27,0019.32,0019.05
2023-01-24 05:55:00,,0822.8,4.99,0.00,22.4,22.6,00.0,30.9,24.4,14.4,-001.2,0020.54,0019.42,0019.15
2023-01-24 05:56:00,,0822.7,5.01,0.00,22.4,22.2,00.0,30.9,24.3,14.3,-001.1,0020.85,0019.51,0019.24
2023-01-24 05:57:00,,0822.7,5.00,0.00,22.4,21.8,00.0,31.0,24.2,14.4,-001.2,0020.99,0019.59,0019.31
2023-01-24 05:58:00,,0822.7,5.00,0.00,22.4,21.6,00.0,31.0,24.2,14.4,-001.1,0020.99,0019.61,0019.33
2023-01-24 05:59:00,,0822.7,5.00,0.00,22.4,21.4,00.0,31.0,24.2,14.4,-001.2,0021.05,0019.63,0019.35
